Wetterdaten: Montag, 11.01.2016
Datum Zeit Auen-Temp. Temp gefhlt Luftfeuchte Luftdruck Regen Wind Richtung Richtung Taupunkt Windben
11.01.2016 00:00 3,4 C 3,2 C 92 % 1000,7 hPa 0,0 mm 2,6 km/h (1 Bft) W-SW 247 2,2 C 3,4 km/h (1 Bft)
11.01.2016 00:05 3,3 C 3,1 C 92 % 1000,7 hPa 0,0 mm 0,8 km/h (0 Bft) S 180 2,1 C 0,0 km/h (0 Bft)
11.01.2016 00:10 3,2 C 3,1 C 92 % 1000,7 hPa 0,0 mm 0,8 km/h (0 Bft) SW 225 2,0 C 0,0 km/h (0 Bft)
11.01.2016 00:15 3,2 C 3,0 C 92 % 1000,7 hPa 0,0 mm 0,8 km/h (0 Bft) SO 135 2,0 C 0,0 km/h (0 Bft)
11.01.2016 00:20 3,2 C 3,0 C 92 % 1001,1 hPa 0,0 mm 1,0 km/h (0 Bft) W-SW 247 2,0 C 4,7 km/h (1 Bft)
11.01.2016 00:25 3,2 C 3,1 C 92 % 1001,1 hPa 0,0 mm 1,0 km/h (0 Bft) S 180 2,0 C 6,0 km/h (2 Bft)
11.01.2016 00:30 3,3 C 3,1 C 92 % 1001,1 hPa 0,0 mm 0,8 km/h (0 Bft) S-SO 157 2,1 C 0,0 km/h (0 Bft)
11.01.2016 00:35 3,2 C 3,1 C 92 % 1001,1 hPa 0,0 mm 0,3 km/h (0 Bft) SO 135 2,0 C 0,0 km/h (0 Bft)
11.01.2016 00:40 3,2 C 3,1 C 92 % 1001,0 hPa 0,0 mm 0,0 km/h (0 Bft) SW 225 2,0 C 0,0 km/h (0 Bft)
11.01.2016 00:45 3,3 C 3,1 C 92 % 1001,0 hPa 0,0 mm 2,1 km/h (1 Bft) NW 315 2,1 C 11,7 km/h (2 Bft)
11.01.2016 00:50 3,4 C 3,2 C 93 % 1001,0 hPa 0,0 mm 3,9 km/h (1 Bft) W-SW 247 2,4 C 7,8 km/h (2 Bft)
11.01.2016 00:55 3,4 C 3,2 C 92 % 1001,0 hPa 0,0 mm 3,4 km/h (1 Bft) W 270 2,2 C 15,0 km/h (3 Bft)
11.01.2016 01:00 3,4 C 3,2 C 92 % 1001,1 hPa 0,7 mm 1,3 km/h (1 Bft) S-SO 157 2,2 C 0,0 km/h (0 Bft)
11.01.2016 01:05 3,3 C 3,1 C 92 % 1001,1 hPa 0,0 mm 1,0 km/h (0 Bft) SW 225 2,1 C 5,2 km/h (1 Bft)
11.01.2016 01:10 3,3 C 3,1 C 92 % 1001,1 hPa 0,0 mm 1,0 km/h (0 Bft) SO 135 2,1 C 0,0 km/h (0 Bft)
11.01.2016 01:15 3,2 C 3,0 C 92 % 1001,1 hPa 0,0 mm 1,0 km/h (0 Bft) SO 135 2,0 C 2,8 km/h (1 Bft)
11.01.2016 01:20 3,2 C 3,0 C 93 % 1000,7 hPa 0,0 mm 1,0 km/h (0 Bft) O-SO 112 2,2 C 4,7 km/h (1 Bft)
11.01.2016 01:25 3,1 C 2,9 C 93 % 1000,7 hPa 0,0 mm 1,3 km/h (1 Bft) S-SO 157 2,1 C 0,0 km/h (0 Bft)
11.01.2016 01:30 3,1 C 2,9 C 93 % 1000,7 hPa 0,0 mm 1,3 km/h (1 Bft) S-SO 157 2,1 C 0,0 km/h (0 Bft)
11.01.2016 01:35 3,1 C 2,9 C 93 % 1000,7 hPa 0,0 mm 1,3 km/h (1 Bft) SO 135 2,1 C 3,4 km/h (1 Bft)
11.01.2016 01:40 3,0 C 2,8 C 93 % 1000,3 hPa 0,0 mm 1,0 km/h (0 Bft) S 180 2,0 C 0,0 km/h (0 Bft)
11.01.2016 01:45 3,0 C 2,8 C 93 % 1000,3 hPa 0,0 mm 1,0 km/h (0 Bft) S-SO 157 2,0 C 4,1 km/h (1 Bft)
11.01.2016 01:50 3,0 C 2,8 C 93 % 1000,3 hPa 0,0 mm 1,3 km/h (1 Bft) S 180 2,0 C 3,4 km/h (1 Bft)
11.01.2016 01:55 3,0 C 2,8 C 93 % 1000,3 hPa 0,0 mm 2,1 km/h (1 Bft) S-SO 157 2,0 C 0,0 km/h (0 Bft)
11.01.2016 02:00 2,9 C 2,7 C 94 % 1000,0 hPa 0,0 mm 1,8 km/h (1 Bft) S 180 2,0 C 3,6 km/h (1 Bft)
11.01.2016 02:05 2,9 C 2,7 C 94 % 1000,0 hPa 0,0 mm 1,6 km/h (1 Bft) SW 225 2,0 C 3,9 km/h (1 Bft)
11.01.2016 02:10 2,8 C 2,7 C 94 % 1000,0 hPa 0,0 mm 1,8 km/h (1 Bft) S 180 1,9 C 2,6 km/h (1 Bft)
11.01.2016 02:15 2,6 C 2,5 C 94 % 1000,0 hPa 0,0 mm 1,0 km/h (0 Bft) O-SO 112 1,7 C 0,0 km/h (0 Bft)
11.01.2016 02:20 2,4 C 2,3 C 94 % 999,5 hPa 0,0 mm 0,3 km/h (0 Bft) W 270 1,5 C 3,6 km/h (1 Bft)
11.01.2016 02:25 2,3 C 2,2 C 94 % 999,5 hPa 0,0 mm 0,5 km/h (0 Bft) S 180 1,4 C 0,0 km/h (0 Bft)
11.01.2016 02:30 2,3 C 2,2 C 94 % 999,5 hPa 0,0 mm 0,5 km/h (0 Bft) S-SO 157 1,4 C 0,0 km/h (0 Bft)
11.01.2016 02:35 2,1 C 2,1 C 94 % 999,5 hPa 0,0 mm 0,3 km/h (0 Bft) N-NW 337 1,2 C 0,0 km/h (0 Bft)
11.01.2016 02:40 2,4 C 2,2 C 94 % 999,6 hPa 0,0 mm 1,0 km/h (0 Bft) S-SO 157 1,5 C 2,8 km/h (1 Bft)
11.01.2016 02:45 2,3 C 2,2 C 94 % 999,6 hPa 0,0 mm 0,8 km/h (0 Bft) O 90 1,4 C 0,0 km/h (0 Bft)
11.01.2016 02:50 2,3 C 2,2 C 94 % 999,6 hPa 0,0 mm 0,5 km/h (0 Bft) SO 135 1,4 C 0,0 km/h (0 Bft)
11.01.2016 02:55 2,3 C 2,2 C 94 % 999,6 hPa 0,0 mm 0,3 km/h (0 Bft) S-SO 157 1,4 C 0,0 km/h (0 Bft)
11.01.2016 03:00 2,2 C 2,1 C 94 % 999,4 hPa 0,0 mm 0,0 km/h (0 Bft) W-SW 247 1,3 C 0,0 km/h (0 Bft)
11.01.2016 03:05 2,3 C 2,2 C 94 % 999,4 hPa 0,0 mm 0,0 km/h (0 Bft) SO 135 1,4 C 0,0 km/h (0 Bft)
11.01.2016 03:10 2,4 C 2,2 C 94 % 999,4 hPa 0,0 mm 0,0 km/h (0 Bft) S 180 1,5 C 0,0 km/h (0 Bft)
11.01.2016 03:15 2,3 C 2,2 C 94 % 999,4 hPa 0,0 mm 0,0 km/h (0 Bft) SO 135 1,4 C 0,0 km/h (0 Bft)
11.01.2016 03:20 2,2 C 2,1 C 94 % 999,2 hPa 0,0 mm 0,0 km/h (0 Bft) SO 135 1,3 C 0,0 km/h (0 Bft)
11.01.2016 03:25 2,2 C 2,1 C 94 % 999,2 hPa 0,0 mm 0,0 km/h (0 Bft) O-SO 112 1,3 C 0,0 km/h (0 Bft)
11.01.2016 03:30 2,3 C 2,2 C 94 % 999,2 hPa 0,0 mm 0,0 km/h (0 Bft) SO 135 1,4 C 0,0 km/h (0 Bft)
11.01.2016 03:35 2,2 C 2,1 C 94 % 999,2 hPa 0,0 mm 0,0 km/h (0 Bft) SO 135 1,3 C 0,0 km/h (0 Bft)
11.01.2016 03:40 2,1 C 2,0 C 94 % 999,0 hPa 0,0 mm 0,0 km/h (0 Bft) NO 45 1,2 C 0,0 km/h (0 Bft)
11.01.2016 03:45 2,1 C 2,0 C 94 % 999,0 hPa 0,0 mm 0,3 km/h (0 Bft) SO 135 1,2 C 5,2 km/h (1 Bft)
11.01.2016 03:50 2,2 C 2,1 C 89 % 999,0 hPa 0,0 mm 1,0 km/h (0 Bft) O-SO 112 0,6 C 0,0 km/h (0 Bft)
11.01.2016 03:55 2,2 C 2,1 C 94 % 999,0 hPa 0,0 mm 1,6 km/h (1 Bft) W 270 1,3 C 0,0 km/h (0 Bft)
11.01.2016 03:56 2,2 C 2,1 C 94 % 998,6 hPa 0,0 mm 0,8 km/h (0 Bft) O-NO 67 1,3 C 0,0 km/h (0 Bft)
11.01.2016 03:58 2,2 C 2,1 C 94 % 998,6 hPa 0,0 mm 0,8 km/h (0 Bft) O-NO 67 1,3 C 0,0 km/h (0 Bft)
11.01.2016 04:00 2,2 C 2,1 C 94 % 998,6 hPa 0,0 mm 0,8 km/h (0 Bft) O-NO 67 1,3 C 0,0 km/h (0 Bft)
11.01.2016 04:05 2,1 C 2,0 C 94 % 998,6 hPa 0,0 mm 0,0 km/h (0 Bft) NW 315 1,2 C 0,0 km/h (0 Bft)
11.01.2016 04:10 2,1 C 2,0 C 94 % 998,6 hPa 0,0 mm 0,0 km/h (0 Bft) W-NW 292 1,2 C 0,0 km/h (0 Bft)
11.01.2016 04:15 2,1 C 2,0 C 94 % 998,6 hPa 0,0 mm 0,0 km/h (0 Bft) NW 315 1,2 C 0,0 km/h (0 Bft)
11.01.2016 04:20 2,2 C 2,0 C 94 % 998,6 hPa 0,0 mm 0,0 km/h (0 Bft) W 270 1,3 C 0,0 km/h (0 Bft)
11.01.2016 04:25 2,1 C 2,0 C 94 % 998,6 hPa 0,0 mm 0,0 km/h (0 Bft) S 180 1,2 C 0,0 km/h (0 Bft)
11.01.2016 04:30 2,2 C 2,1 C 94 % 998,6 hPa 0,0 mm 0,0 km/h (0 Bft) S-SW 202 1,3 C 0,0 km/h (0 Bft)
11.01.2016 04:35 2,2 C 2,1 C 94 % 998,6 hPa 0,0 mm 0,0 km/h (0 Bft) S-SW 202 1,3 C 0,0 km/h (0 Bft)
11.01.2016 04:40 2,2 C 2,1 C 89 % 998,4 hPa 0,0 mm 0,0 km/h (0 Bft) S 180 0,6 C 0,0 km/h (0 Bft)
11.01.2016 04:45 2,3 C 2,2 C 95 % 998,4 hPa 0,0 mm 0,0 km/h (0 Bft) S-SO 157 1,6 C 0,0 km/h (0 Bft)
11.01.2016 04:50 2,3 C 2,2 C 95 % 998,4 hPa 0,0 mm 0,0 km/h (0 Bft) S-SO 157 1,6 C 0,0 km/h (0 Bft)
11.01.2016 04:55 2,2 C 2,1 C 95 % 998,4 hPa 0,0 mm 0,0 km/h (0 Bft) SW 225 1,5 C 0,0 km/h (0 Bft)
11.01.2016 05:00 2,1 C 2,0 C 95 % 997,8 hPa 0,0 mm 0,0 km/h (0 Bft) S-SO 157 1,4 C 0,0 km/h (0 Bft)
11.01.2016 05:05 2,1 C 2,0 C 95 % 997,8 hPa 0,0 mm 0,0 km/h (0 Bft) S-SO 157 1,4 C 0,0 km/h (0 Bft)
11.01.2016 05:10 2,1 C 2,0 C 94 % 997,8 hPa 0,0 mm 0,0 km/h (0 Bft) S-SO 157 1,2 C 0,0 km/h (0 Bft)
11.01.2016 05:15 2,0 C 1,9 C 94 % 997,8 hPa 0,0 mm 0,0 km/h (0 Bft) S-SO 157 1,1 C 0,0 km/h (0 Bft)
11.01.2016 05:20 2,0 C 1,9 C 94 % 997,3 hPa 0,0 mm 0,0 km/h (0 Bft) S-SO 157 1,1 C 0,0 km/h (0 Bft)
11.01.2016 05:25 2,0 C 1,9 C 94 % 997,3 hPa 0,0 mm 0,0 km/h (0 Bft) S-SO 157 1,1 C 0,0 km/h (0 Bft)
11.01.2016 05:30 1,9 C 1,8 C 95 % 997,3 hPa 0,0 mm 0,0 km/h (0 Bft) S-SO 157 1,2 C 0,0 km/h (0 Bft)
11.01.2016 05:35 1,9 C 1,8 C 95 % 997,3 hPa 0,0 mm 0,0 km/h (0 Bft) S-SO 157 1,2 C 0,0 km/h (0 Bft)
11.01.2016 05:40 1,9 C 1,8 C 95 % 997,0 hPa 0,0 mm 0,0 km/h (0 Bft) S-SO 157 1,2 C 0,0 km/h (0 Bft)
11.01.2016 05:45 2,1 C 2,0 C 94 % 997,0 hPa 0,0 mm 0,0 km/h (0 Bft) S-SO 157 1,2 C 0,0 km/h (0 Bft)
11.01.2016 05:50 2,0 C 1,9 C 94 % 997,0 hPa 0,0 mm 0,0 km/h (0 Bft) S-SO 157 1,1 C 0,0 km/h (0 Bft)
11.01.2016 05:55 2,0 C 1,9 C 94 % 997,0 hPa 0,0 mm 0,0 km/h (0 Bft) S-SO 157 1,1 C 0,0 km/h (0 Bft)
11.01.2016 06:00 1,9 C 1,8 C 95 % 996,5 hPa 0,0 mm 0,0 km/h (0 Bft) O-SO 112 1,2 C 0,0 km/h (0 Bft)
11.01.2016 06:05 2,1 C 2,0 C 89 % 996,5 hPa 0,0 mm 0,0 km/h (0 Bft) O-SO 112 0,5 C 2,6 km/h (1 Bft)
11.01.2016 06:10 2,2 C 2,1 C 89 % 996,5 hPa 0,0 mm 0,3 km/h (0 Bft) O-SO 112 0,6 C 0,0 km/h (0 Bft)
11.01.2016 06:15 2,2 C 2,1 C 95 % 996,5 hPa 0,0 mm 0,3 km/h (0 Bft) SW 225 1,5 C 0,0 km/h (0 Bft)
11.01.2016 06:20 2,2 C 2,1 C 95 % 996,7 hPa 0,0 mm 0,0 km/h (0 Bft) O-SO 112 1,5 C 0,0 km/h (0 Bft)
11.01.2016 06:25 2,2 C 2,1 C 95 % 996,7 hPa 0,0 mm 0,0 km/h (0 Bft) O-SO 112 1,5 C 0,0 km/h (0 Bft)
11.01.2016 06:30 2,1 C 2,0 C 95 % 996,7 hPa 0,0 mm 0,0 km/h (0 Bft) O-NO 67 1,4 C 0,0 km/h (0 Bft)
11.01.2016 06:35 2,2 C 2,1 C 95 % 996,7 hPa 0,0 mm 1,0 km/h (0 Bft) O-NO 67 1,5 C 6,0 km/h (2 Bft)
11.01.2016 06:40 2,1 C 2,0 C 95 % 995,9 hPa 0,0 mm 1,6 km/h (1 Bft) O-NO 67 1,4 C 3,4 km/h (1 Bft)
11.01.2016 06:45 2,1 C 2,0 C 95 % 995,9 hPa 0,0 mm 1,3 km/h (1 Bft) O-NO 67 1,4 C 0,0 km/h (0 Bft)
11.01.2016 06:50 2,0 C 1,9 C 95 % 995,9 hPa 0,0 mm 1,8 km/h (1 Bft) N-NO 22 1,3 C 4,4 km/h (1 Bft)
11.01.2016 06:55 1,9 C 1,8 C 95 % 995,9 hPa 0,0 mm 1,8 km/h (1 Bft) SO 135 1,2 C 0,0 km/h (0 Bft)
11.01.2016 07:00 2,0 C 1,9 C 95 % 995,2 hPa 0,0 mm 1,6 km/h (1 Bft) SW 225 1,3 C 4,1 km/h (1 Bft)
11.01.2016 07:05 2,1 C 1,9 C 95 % 995,2 hPa 0,0 mm 1,8 km/h (1 Bft) O 90 1,4 C 0,0 km/h (0 Bft)
11.01.2016 07:10 2,1 C 1,9 C 95 % 995,2 hPa 0,0 mm 1,8 km/h (1 Bft) N-NO 22 1,4 C 2,6 km/h (1 Bft)
11.01.2016 07:15 2,1 C 2,0 C 95 % 995,2 hPa 0,0 mm 1,8 km/h (1 Bft) O 90 1,4 C 2,6 km/h (1 Bft)
11.01.2016 07:20 2,0 C 1,9 C 95 % 995,2 hPa 0,0 mm 1,3 km/h (1 Bft) N-NW 337 1,3 C 4,9 km/h (1 Bft)
11.01.2016 07:25 2,1 C 2,0 C 95 % 995,2 hPa 0,0 mm 1,8 km/h (1 Bft) O 90 1,4 C 0,0 km/h (0 Bft)
11.01.2016 07:30 2,1 C 2,0 C 95 % 995,2 hPa 0,0 mm 2,3 km/h (1 Bft) NW 315 1,4 C 4,7 km/h (1 Bft)
11.01.2016 07:35 2,1 C 2,0 C 95 % 995,2 hPa 0,0 mm 2,6 km/h (1 Bft) O-NO 67 1,4 C 4,4 km/h (1 Bft)
11.01.2016 07:40 2,0 C 1,9 C 95 % 995,3 hPa 0,0 mm 1,8 km/h (1 Bft) O-NO 67 1,3 C 0,0 km/h (0 Bft)
11.01.2016 07:45 2,1 C 2,0 C 95 % 995,3 hPa 0,0 mm 1,6 km/h (1 Bft) W-NW 292 1,4 C 3,4 km/h (1 Bft)
11.01.2016 07:50 2,1 C 2,0 C 95 % 995,3 hPa 0,0 mm 1,8 km/h (1 Bft) O-SO 112 1,4 C 0,0 km/h (0 Bft)
11.01.2016 07:55 1,9 C 1,8 C 95 % 995,3 hPa 0,0 mm 0,8 km/h (0 Bft) O-NO 67 1,2 C 0,0 km/h (0 Bft)
11.01.2016 08:00 2,0 C 1,9 C 95 % 994,8 hPa 0,0 mm 0,5 km/h (0 Bft) O-NO 67 1,3 C 3,4 km/h (1 Bft)
11.01.2016 08:05 2,1 C 2,0 C 95 % 994,8 hPa 0,0 mm 1,3 km/h (1 Bft) O-NO 67 1,4 C 6,7 km/h (2 Bft)
11.01.2016 08:10 2,1 C 1,9 C 95 % 994,8 hPa 0,0 mm 1,8 km/h (1 Bft) NO 45 1,4 C 3,4 km/h (1 Bft)
11.01.2016 08:15 2,1 C 1,9 C 95 % 994,8 hPa 0,0 mm 2,1 km/h (1 Bft) NO 45 1,4 C 0,0 km/h (0 Bft)
11.01.2016 08:20 2,1 C 1,9 C 95 % 994,6 hPa 0,0 mm 1,6 km/h (1 Bft) O-SO 112 1,4 C 0,0 km/h (0 Bft)
11.01.2016 08:25 2,1 C 1,9 C 95 % 994,6 hPa 0,0 mm 1,0 km/h (0 Bft) O-SO 112 1,4 C 4,9 km/h (1 Bft)
11.01.2016 08:30 2,1 C 2,0 C 95 % 994,6 hPa 0,0 mm 0,8 km/h (0 Bft) NW 315 1,4 C 0,0 km/h (0 Bft)
11.01.2016 08:35 2,1 C 2,0 C 95 % 994,6 hPa 0,0 mm 0,8 km/h (0 Bft) O 90 1,4 C 0,0 km/h (0 Bft)
11.01.2016 08:36 2,1 C 1,9 C 95 % 995,2 hPa 0,0 mm 0,3 km/h (0 Bft) O-NO 67 1,4 C 0,0 km/h (0 Bft)
11.01.2016 08:39 2,1 C 1,9 C 95 % 995,2 hPa 0,0 mm 0,3 km/h (0 Bft) O-NO 67 1,4 C 0,0 km/h (0 Bft)
11.01.2016 08:40 2,1 C 1,9 C 95 % 995,2 hPa 0,0 mm 0,3 km/h (0 Bft) O-NO 67 1,4 C 0,0 km/h (0 Bft)
11.01.2016 08:45 2,1 C 2,0 C 95 % 995,2 hPa 0,0 mm 0,0 km/h (0 Bft) SO 135 1,4 C 0,0 km/h (0 Bft)
11.01.2016 08:46 2,1 C 2,0 C 95 % 995,2 hPa 0,0 mm 0,0 km/h (0 Bft) SO 135 1,4 C 0,0 km/h (0 Bft)
11.01.2016 08:50 2,1 C 2,0 C 95 % 995,2 hPa 0,0 mm 0,0 km/h (0 Bft) O-NO 67 1,4 C 0,0 km/h (0 Bft)
11.01.2016 08:55 2,1 C 2,0 C 95 % 995,2 hPa 0,0 mm 0,0 km/h (0 Bft) S-SO 157 1,4 C 0,0 km/h (0 Bft)
11.01.2016 09:00 2,1 C 2,0 C 95 % 994,6 hPa 0,0 mm 0,0 km/h (0 Bft) O-NO 67 1,4 C 2,6 km/h (1 Bft)
11.01.2016 09:05 2,2 C 2,1 C 95 % 994,6 hPa 0,0 mm 0,8 km/h (0 Bft) N-NW 337 1,5 C 0,0 km/h (0 Bft)
11.01.2016 09:10 2,2 C 2,1 C 95 % 994,6 hPa 0,0 mm 0,8 km/h (0 Bft) O-NO 67 1,5 C 0,0 km/h (0 Bft)
11.01.2016 09:15 2,2 C 2,1 C 95 % 994,6 hPa 0,0 mm 0,8 km/h (0 Bft) W-SW 247 1,5 C 0,0 km/h (0 Bft)
11.01.2016 09:20 2,2 C 2,1 C 95 % 994,6 hPa 0,7 mm 0,3 km/h (0 Bft) W 270 1,5 C 3,9 km/h (1 Bft)
11.01.2016 09:25 2,2 C 2,1 C 95 % 994,6 hPa 0,0 mm 2,8 km/h (1 Bft) NW 315 1,5 C 7,8 km/h (2 Bft)
11.01.2016 09:30 2,2 C 2,1 C 95 % 994,6 hPa 0,0 mm 3,1 km/h (1 Bft) W-SW 247 1,5 C 2,8 km/h (1 Bft)
11.01.2016 09:35 2,3 C 2,2 C 95 % 994,6 hPa 0,0 mm 2,1 km/h (1 Bft) N-NW 337 1,6 C 4,4 km/h (1 Bft)
11.01.2016 09:40 2,3 C 2,3 C 89 % 994,4 hPa 0,0 mm 2,6 km/h (1 Bft) NW 315 0,7 C 3,6 km/h (1 Bft)
11.01.2016 09:45 2,5 C 2,4 C 95 % 994,4 hPa 0,7 mm 3,1 km/h (1 Bft) O-SO 112 1,8 C 8,5 km/h (2 Bft)
11.01.2016 09:50 2,7 C 2,7 C 89 % 994,4 hPa 0,0 mm 4,1 km/h (1 Bft) W-SW 247 1,1 C 4,4 km/h (1 Bft)
11.01.2016 09:55 3,5 C 3,2 C 89 % 994,4 hPa 0,0 mm 6,2 km/h (2 Bft) W 270 1,9 C 32,4 km/h (5 Bft)
11.01.2016 09:56 4,0 C 3,2 C 89 % 994,1 hPa 0,0 mm 10,6 km/h (2 Bft) SW 225 2,4 C 8,5 km/h (2 Bft)
11.01.2016 09:59 4,0 C 3,2 C 89 % 994,1 hPa 0,0 mm 10,6 km/h (2 Bft) SW 225 2,4 C 8,5 km/h (2 Bft)
11.01.2016 10:00 4,0 C 3,2 C 89 % 994,1 hPa 0,0 mm 10,6 km/h (2 Bft) SW 225 2,4 C 8,5 km/h (2 Bft)
11.01.2016 10:05 4,6 C 3,8 C 94 % 994,1 hPa 0,0 mm 10,9 km/h (2 Bft) S-SO 157 3,7 C 8,0 km/h (2 Bft)
11.01.2016 10:10 5,2 C 4,4 C 94 % 994,1 hPa 0,0 mm 10,1 km/h (2 Bft) W-SW 247 4,3 C 13,5 km/h (3 Bft)
11.01.2016 10:15 5,3 C 4,6 C 94 % 994,1 hPa 0,7 mm 9,3 km/h (2 Bft) W-SW 247 4,4 C 8,5 km/h (2 Bft)
11.01.2016 10:20 5,5 C 5,0 C 94 % 994,3 hPa 0,0 mm 8,8 km/h (2 Bft) W-SW 247 4,6 C 20,2 km/h (4 Bft)
11.01.2016 10:25 5,6 C 5,0 C 94 % 994,3 hPa 0,7 mm 11,1 km/h (2 Bft) W-SW 247 4,7 C 17,6 km/h (3 Bft)
11.01.2016 10:30 5,6 C 4,9 C 94 % 994,3 hPa 0,0 mm 12,2 km/h (2 Bft) W-SW 247 4,7 C 28,5 km/h (4 Bft)
11.01.2016 10:35 6,0 C 5,3 C 92 % 994,3 hPa 0,0 mm 15,5 km/h (3 Bft) O-SO 112 4,8 C 42,7 km/h (6 Bft)
11.01.2016 10:40 6,0 C 5,2 C 91 % 993,8 hPa 0,7 mm 18,9 km/h (3 Bft) W-SW 247 4,6 C 23,8 km/h (4 Bft)
11.01.2016 10:45 6,0 C 5,2 C 91 % 993,8 hPa 0,0 mm 16,6 km/h (3 Bft) S-SW 202 4,6 C 11,1 km/h (2 Bft)
11.01.2016 10:50 6,0 C 5,3 C 90 % 993,8 hPa 0,0 mm 14,2 km/h (3 Bft) W-SW 247 4,5 C 17,6 km/h (3 Bft)
11.01.2016 10:55 6,6 C 5,8 C 90 % 993,8 hPa 0,0 mm 13,5 km/h (3 Bft) SO 135 5,1 C 13,7 km/h (3 Bft)
11.01.2016 11:00 6,8 C 6,0 C 88 % 994,0 hPa 0,0 mm 14,2 km/h (3 Bft) W-SW 247 5,0 C 17,3 km/h (3 Bft)
11.01.2016 11:05 6,7 C 5,9 C 85 % 994,0 hPa 0,0 mm 13,2 km/h (3 Bft) W 270 4,4 C 28,7 km/h (4 Bft)
11.01.2016 11:10 6,7 C 5,9 C 85 % 994,0 hPa 0,0 mm 12,9 km/h (3 Bft) W-NW 292 4,4 C 12,4 km/h (3 Bft)
11.01.2016 11:15 6,5 C 5,6 C 84 % 994,0 hPa 0,0 mm 12,2 km/h (2 Bft) SW 225 4,0 C 8,8 km/h (2 Bft)
11.01.2016 11:20 6,3 C 5,6 C 84 % 994,2 hPa 0,0 mm 10,1 km/h (2 Bft) W-SW 247 3,8 C 9,8 km/h (2 Bft)
11.01.2016 11:25 6,4 C 5,8 C 83 % 994,2 hPa 0,0 mm 8,5 km/h (2 Bft) W 270 3,7 C 5,7 km/h (1 Bft)
11.01.2016 11:30 6,2 C 5,7 C 83 % 994,2 hPa 0,0 mm 7,5 km/h (2 Bft) NW 315 3,5 C 7,3 km/h (2 Bft)
11.01.2016 11:35 6,0 C 5,6 C 83 % 994,2 hPa 0,0 mm 8,0 km/h (2 Bft) NW 315 3,3 C 28,7 km/h (4 Bft)
11.01.2016 11:40 5,8 C 5,1 C 84 % 994,7 hPa 0,0 mm 10,4 km/h (2 Bft) NW 315 3,3 C 7,3 km/h (2 Bft)
11.01.2016 11:45 5,4 C 4,9 C 84 % 994,7 hPa 0,0 mm 13,2 km/h (3 Bft) W-NW 292 2,9 C 16,3 km/h (3 Bft)
11.01.2016 11:50 5,2 C 4,4 C 84 % 994,7 hPa 0,0 mm 11,9 km/h (2 Bft) W-NW 292 2,7 C 13,5 km/h (3 Bft)
11.01.2016 11:55 5,0 C 4,3 C 85 % 994,7 hPa 0,7 mm 9,8 km/h (2 Bft) N 360 2,7 C 9,8 km/h (2 Bft)
11.01.2016 12:00 4,9 C 4,2 C 86 % 994,6 hPa 0,0 mm 9,8 km/h (2 Bft) W 270 2,8 C 12,9 km/h (3 Bft)
11.01.2016 12:05 4,9 C 4,3 C 87 % 994,6 hPa 0,0 mm 12,4 km/h (3 Bft) W-SW 247 2,9 C 16,6 km/h (3 Bft)
11.01.2016 12:10 5,0 C 4,3 C 87 % 994,6 hPa 0,0 mm 14,2 km/h (3 Bft) S-SW 202 3,0 C 15,5 km/h (3 Bft)
11.01.2016 12:15 5,2 C 4,2 C 86 % 994,6 hPa 0,0 mm 14,8 km/h (3 Bft) W-SW 247 3,1 C 24,3 km/h (4 Bft)
11.01.2016 12:20 5,4 C 4,6 C 86 % 993,8 hPa 0,7 mm 14,0 km/h (3 Bft) W-SW 247 3,3 C 16,6 km/h (3 Bft)
11.01.2016 12:25 5,4 C 4,7 C 86 % 993,8 hPa 0,0 mm 12,9 km/h (3 Bft) SW 225 3,3 C 25,9 km/h (4 Bft)
11.01.2016 12:30 5,4 C 4,6 C 86 % 993,8 hPa 0,0 mm 11,7 km/h (2 Bft) W-SW 247 3,3 C 10,6 km/h (2 Bft)
11.01.2016 12:35 5,5 C 4,8 C 86 % 993,8 hPa 0,0 mm 12,4 km/h (3 Bft) W 270 3,3 C 17,3 km/h (3 Bft)
11.01.2016 12:40 5,5 C 4,8 C 86 % 993,8 hPa 0,0 mm 13,2 km/h (3 Bft) W 270 3,3 C 14,8 km/h (3 Bft)
11.01.2016 12:45 5,5 C 4,5 C 85 % 993,8 hPa 0,0 mm 13,7 km/h (3 Bft) W-SW 247 3,2 C 19,9 km/h (4 Bft)
11.01.2016 12:50 5,5 C 4,7 C 85 % 993,8 hPa 0,0 mm 14,0 km/h (3 Bft) W-SW 247 3,2 C 19,2 km/h (3 Bft)
11.01.2016 12:55 5,4 C 4,7 C 85 % 993,8 hPa 0,7 mm 13,2 km/h (3 Bft) NW 315 3,1 C 14,0 km/h (3 Bft)
11.01.2016 13:00 5,3 C 4,5 C 86 % 994,0 hPa 0,0 mm 12,9 km/h (3 Bft) W 270 3,2 C 11,1 km/h (2 Bft)
11.01.2016 13:05 5,3 C 4,6 C 86 % 994,0 hPa 0,0 mm 13,5 km/h (3 Bft) W 270 3,2 C 14,0 km/h (3 Bft)
11.01.2016 13:10 5,2 C 4,5 C 86 % 994,0 hPa 0,0 mm 14,0 km/h (3 Bft) W 270 3,1 C 16,8 km/h (3 Bft)
11.01.2016 13:15 5,1 C 4,2 C 87 % 994,0 hPa 0,0 mm 13,2 km/h (3 Bft) W-SW 247 3,1 C 21,0 km/h (4 Bft)
11.01.2016 13:20 5,0 C 4,3 C 87 % 994,3 hPa 0,7 mm 11,9 km/h (2 Bft) NW 315 3,0 C 10,1 km/h (2 Bft)
11.01.2016 13:25 4,9 C 4,3 C 88 % 994,3 hPa 0,0 mm 14,0 km/h (3 Bft) W 270 3,1 C 18,4 km/h (3 Bft)
11.01.2016 13:30 4,6 C 4,0 C 88 % 994,3 hPa 0,0 mm 15,8 km/h (3 Bft) W 270 2,8 C 22,8 km/h (4 Bft)
11.01.2016 13:35 4,3 C 3,6 C 87 % 994,3 hPa 0,7 mm 18,6 km/h (3 Bft) SW 225 2,3 C 17,6 km/h (3 Bft)
11.01.2016 13:40 4,1 C 3,3 C 87 % 994,2 hPa 0,0 mm 20,7 km/h (4 Bft) W-SW 247 2,1 C 26,4 km/h (4 Bft)
11.01.2016 13:45 4,0 C 2,8 C 87 % 994,2 hPa 0,0 mm 18,6 km/h (3 Bft) W 270 2,0 C 30,8 km/h (5 Bft)
11.01.2016 13:50 3,8 C 3,0 C 87 % 994,2 hPa 0,7 mm 18,1 km/h (3 Bft) W-SW 247 1,8 C 24,1 km/h (4 Bft)
11.01.2016 13:55 3,7 C 2,9 C 88 % 994,2 hPa 0,0 mm 17,3 km/h (3 Bft) W-NW 292 1,9 C 24,9 km/h (4 Bft)
11.01.2016 14:00 3,7 C 2,5 C 88 % 994,5 hPa 0,0 mm 17,6 km/h (3 Bft) W 270 1,9 C 19,9 km/h (4 Bft)
11.01.2016 14:05 3,6 C 2,8 C 88 % 994,5 hPa 0,0 mm 16,1 km/h (3 Bft) W 270 1,8 C 18,4 km/h (3 Bft)
11.01.2016 14:10 3,5 C 2,8 C 88 % 994,5 hPa 0,0 mm 14,0 km/h (3 Bft) W-SW 247 1,7 C 30,0 km/h (5 Bft)
11.01.2016 14:15 3,4 C 2,7 C 88 % 994,5 hPa 0,7 mm 12,4 km/h (3 Bft) NW 315 1,6 C 12,7 km/h (3 Bft)
11.01.2016 14:20 3,3 C 2,6 C 88 % 994,8 hPa 0,0 mm 12,9 km/h (3 Bft) W 270 1,5 C 17,3 km/h (3 Bft)
11.01.2016 14:25 3,1 C 2,4 C 89 % 994,8 hPa 0,0 mm 14,0 km/h (3 Bft) W-NW 292 1,5 C 15,8 km/h (3 Bft)
11.01.2016 14:30 3,1 C 2,1 C 89 % 994,8 hPa 0,0 mm 13,2 km/h (3 Bft) W 270 1,5 C 12,7 km/h (3 Bft)
11.01.2016 14:35 3,1 C 2,2 C 89 % 994,8 hPa 0,0 mm 11,7 km/h (2 Bft) W 270 1,5 C 14,5 km/h (3 Bft)
11.01.2016 14:40 3,1 C 2,2 C 89 % 994,5 hPa 0,0 mm 11,9 km/h (2 Bft) W 270 1,5 C 10,4 km/h (2 Bft)
11.01.2016 14:45 3,1 C 2,2 C 89 % 994,5 hPa 0,0 mm 11,1 km/h (2 Bft) S 180 1,5 C 6,0 km/h (2 Bft)
11.01.2016 14:50 3,2 C 2,4 C 89 % 994,5 hPa 0,0 mm 9,8 km/h (2 Bft) W 270 1,6 C 6,7 km/h (2 Bft)
11.01.2016 14:55 3,2 C 2,4 C 89 % 994,5 hPa 0,0 mm 10,6 km/h (2 Bft) W-SW 247 1,6 C 14,0 km/h (3 Bft)
11.01.2016 15:00 3,1 C 2,3 C 89 % 994,7 hPa 0,0 mm 10,6 km/h (2 Bft) NW 315 1,5 C 8,8 km/h (2 Bft)
11.01.2016 15:05 3,1 C 2,3 C 89 % 994,7 hPa 0,0 mm 10,1 km/h (2 Bft) W-NW 292 1,5 C 11,9 km/h (2 Bft)
11.01.2016 15:10 3,1 C 2,3 C 89 % 994,7 hPa 0,0 mm 10,6 km/h (2 Bft) W 270 1,5 C 27,7 km/h (4 Bft)
11.01.2016 15:15 3,2 C 2,5 C 89 % 994,7 hPa 0,7 mm 13,5 km/h (3 Bft) W-NW 292 1,6 C 22,8 km/h (4 Bft)
11.01.2016 15:20 3,2 C 2,4 C 89 % 994,7 hPa 0,0 mm 16,1 km/h (3 Bft) W-NW 292 1,6 C 16,6 km/h (3 Bft)
11.01.2016 15:25 3,3 C 2,5 C 89 % 994,7 hPa 0,0 mm 15,3 km/h (3 Bft) W-SW 247 1,7 C 20,5 km/h (4 Bft)
11.01.2016 15:30 3,3 C 2,5 C 89 % 994,7 hPa 0,0 mm 12,7 km/h (3 Bft) W-NW 292 1,7 C 12,4 km/h (3 Bft)
11.01.2016 15:35 3,2 C 2,3 C 89 % 994,7 hPa 0,0 mm 11,1 km/h (2 Bft) W-SW 247 1,6 C 10,9 km/h (2 Bft)
11.01.2016 15:40 3,3 C 2,4 C 89 % 995,0 hPa 0,0 mm 11,1 km/h (2 Bft) W-SW 247 1,7 C 17,6 km/h (3 Bft)
11.01.2016 15:45 3,3 C 2,6 C 89 % 995,0 hPa 0,0 mm 12,4 km/h (3 Bft) W-SW 247 1,7 C 19,2 km/h (3 Bft)
11.01.2016 15:50 3,4 C 2,6 C 88 % 995,0 hPa 0,0 mm 14,5 km/h (3 Bft) W-SW 247 1,6 C 11,4 km/h (2 Bft)
11.01.2016 15:55 3,4 C 2,2 C 88 % 995,0 hPa 0,0 mm 14,5 km/h (3 Bft) W 270 1,6 C 40,7 km/h (6 Bft)
11.01.2016 15:56 3,5 C 2,6 C 87 % 995,0 hPa 0,0 mm 14,2 km/h (3 Bft) W 270 1,5 C 15,3 km/h (3 Bft)
11.01.2016 16:00 3,5 C 2,4 C 87 % 995,0 hPa 0,0 mm 14,2 km/h (3 Bft) W 270 1,5 C 15,3 km/h (3 Bft)
11.01.2016 16:05 3,4 C 2,6 C 87 % 995,0 hPa 0,0 mm 13,7 km/h (3 Bft) N-NW 337 1,4 C 12,2 km/h (2 Bft)
11.01.2016 16:10 3,5 C 2,7 C 86 % 995,0 hPa 0,0 mm 12,9 km/h (3 Bft) W 270 1,4 C 23,6 km/h (4 Bft)
11.01.2016 16:15 3,5 C 2,7 C 86 % 995,0 hPa 0,0 mm 13,7 km/h (3 Bft) W-SW 247 1,4 C 13,5 km/h (3 Bft)
11.01.2016 16:20 3,4 C 2,6 C 86 % 994,8 hPa 0,0 mm 12,9 km/h (3 Bft) W-SW 247 1,3 C 11,7 km/h (2 Bft)
11.01.2016 16:25 3,6 C 2,7 C 86 % 994,8 hPa 0,0 mm 12,7 km/h (3 Bft) N-NO 22 1,5 C 13,7 km/h (3 Bft)
11.01.2016 16:30 3,6 C 2,8 C 85 % 994,8 hPa 0,0 mm 12,4 km/h (3 Bft) W 270 1,3 C 22,0 km/h (4 Bft)
11.01.2016 16:35 3,6 C 2,6 C 85 % 994,8 hPa 0,0 mm 11,7 km/h (2 Bft) W-SW 247 1,3 C 13,2 km/h (3 Bft)
11.01.2016 16:40 3,5 C 2,6 C 85 % 994,2 hPa 0,0 mm 11,1 km/h (2 Bft) W 270 1,2 C 14,0 km/h (3 Bft)
11.01.2016 16:45 3,5 C 2,6 C 84 % 994,2 hPa 0,0 mm 11,1 km/h (2 Bft) W-SW 247 1,1 C 14,5 km/h (3 Bft)
11.01.2016 16:50 3,5 C 2,6 C 84 % 994,2 hPa 0,0 mm 11,4 km/h (2 Bft) SW 225 1,1 C 14,0 km/h (3 Bft)
11.01.2016 16:55 3,4 C 2,6 C 84 % 994,2 hPa 0,0 mm 10,6 km/h (2 Bft) W 270 1,0 C 7,8 km/h (2 Bft)
11.01.2016 17:00 3,2 C 2,6 C 84 % 994,4 hPa 0,0 mm 8,8 km/h (2 Bft) W-SW 247 0,8 C 12,7 km/h (3 Bft)
11.01.2016 17:05 3,1 C 2,6 C 85 % 994,4 hPa 0,0 mm 7,3 km/h (2 Bft) W 270 0,8 C 7,3 km/h (2 Bft)
11.01.2016 17:10 3,0 C 2,5 C 85 % 994,4 hPa 0,0 mm 7,0 km/h (2 Bft) W-SW 247 0,7 C 6,2 km/h (2 Bft)
11.01.2016 17:15 3,1 C 2,6 C 85 % 994,4 hPa 0,0 mm 7,0 km/h (2 Bft) W 270 0,8 C 9,1 km/h (2 Bft)
11.01.2016 17:20 3,1 C 2,5 C 85 % 993,8 hPa 0,0 mm 8,0 km/h (2 Bft) W-SW 247 0,8 C 6,5 km/h (2 Bft)
11.01.2016 17:25 3,1 C 2,5 C 85 % 993,8 hPa 0,0 mm 8,0 km/h (2 Bft) W-SW 247 0,8 C 4,4 km/h (1 Bft)
11.01.2016 17:30 2,9 C 2,4 C 86 % 993,8 hPa 0,0 mm 7,5 km/h (2 Bft) SW 225 0,8 C 17,3 km/h (3 Bft)
11.01.2016 17:35 3,0 C 2,5 C 85 % 993,8 hPa 0,0 mm 6,7 km/h (2 Bft) W-SW 247 0,7 C 11,7 km/h (2 Bft)
11.01.2016 17:40 3,0 C 2,5 C 85 % 994,0 hPa 0,0 mm 6,5 km/h (2 Bft) S 180 0,7 C 10,6 km/h (2 Bft)
11.01.2016 17:45 2,9 C 2,7 C 86 % 994,0 hPa 0,0 mm 4,7 km/h (1 Bft) W-SW 247 0,8 C 5,2 km/h (1 Bft)
11.01.2016 17:50 2,8 C 2,7 C 86 % 994,0 hPa 0,0 mm 2,8 km/h (1 Bft) W-SW 247 0,7 C 4,7 km/h (1 Bft)
11.01.2016 17:55 3,1 C 2,9 C 85 % 994,0 hPa 0,0 mm 3,4 km/h (1 Bft) W-SW 247 0,8 C 5,7 km/h (1 Bft)
11.01.2016 18:00 3,2 C 2,9 C 85 % 994,2 hPa 0,0 mm 5,2 km/h (1 Bft) SW 225 0,9 C 9,1 km/h (2 Bft)
11.01.2016 18:05 3,3 C 3,0 C 84 % 994,2 hPa 0,0 mm 5,7 km/h (1 Bft) S-SW 202 0,9 C 7,3 km/h (2 Bft)
11.01.2016 18:10 3,4 C 3,0 C 84 % 994,2 hPa 0,0 mm 6,0 km/h (2 Bft) W-SW 247 1,0 C 6,7 km/h (2 Bft)
11.01.2016 18:15 4,1 C 3,3 C 80 % 994,2 hPa 0,0 mm 9,3 km/h (2 Bft) SO 135 1,0 C 13,5 km/h (3 Bft)
11.01.2016 18:20 4,2 C 3,6 C 79 % 994,2 hPa 0,0 mm 12,4 km/h (3 Bft) W-NW 292 0,9 C 23,8 km/h (4 Bft)
11.01.2016 18:25 4,7 C 4,0 C 77 % 994,2 hPa 0,0 mm 17,3 km/h (3 Bft) SW 225 1,0 C 25,4 km/h (4 Bft)
11.01.2016 18:30 4,7 C 3,7 C 75 % 994,2 hPa 0,0 mm 21,2 km/h (4 Bft) W-SW 247 0,7 C 17,1 km/h (3 Bft)
11.01.2016 18:35 4,5 C 3,9 C 74 % 994,2 hPa 0,0 mm 18,1 km/h (3 Bft) W 270 0,3 C 44,8 km/h (6 Bft)
11.01.2016 18:40 4,5 C 4,0 C 74 % 994,0 hPa 0,0 mm 13,2 km/h (3 Bft) W-SW 247 0,3 C 13,7 km/h (3 Bft)
11.01.2016 18:45 4,2 C 3,6 C 73 % 994,0 hPa 0,0 mm 11,4 km/h (2 Bft) N-NW 337 -0,2 C 16,8 km/h (3 Bft)
11.01.2016 18:50 4,2 C 3,6 C 73 % 994,0 hPa 0,0 mm 11,7 km/h (2 Bft) W-SW 247 -0,2 C 19,9 km/h (4 Bft)
11.01.2016 18:55 4,1 C 3,6 C 72 % 994,0 hPa 0,0 mm 12,7 km/h (3 Bft) W-NW 292 -0,5 C 19,7 km/h (3 Bft)
11.01.2016 19:00 4,1 C 3,4 C 72 % 994,1 hPa 0,0 mm 11,1 km/h (2 Bft) O-NO 67 -0,5 C 11,1 km/h (2 Bft)
11.01.2016 19:05 4,2 C 3,4 C 71 % 994,1 hPa 0,0 mm 12,2 km/h (2 Bft) W 270 -0,6 C 19,7 km/h (3 Bft)
11.01.2016 19:10 4,2 C 3,4 C 70 % 994,1 hPa 0,0 mm 12,7 km/h (3 Bft) SW 225 -0,8 C 17,9 km/h (3 Bft)
11.01.2016 19:15 4,1 C 3,4 C 69 % 994,1 hPa 0,0 mm 11,4 km/h (2 Bft) W-SW 247 -1,1 C 19,4 km/h (3 Bft)
11.01.2016 19:20 4,2 C 3,5 C 69 % 993,9 hPa 0,0 mm 10,9 km/h (2 Bft) W 270 -1,0 C 7,0 km/h (2 Bft)
11.01.2016 19:25 4,4 C 3,8 C 68 % 993,9 hPa 0,0 mm 12,9 km/h (3 Bft) SW 225 -1,0 C 23,3 km/h (4 Bft)
11.01.2016 19:30 4,5 C 3,6 C 67 % 993,9 hPa 0,0 mm 14,2 km/h (3 Bft) W-NW 292 -1,1 C 17,6 km/h (3 Bft)
11.01.2016 19:35 4,5 C 3,9 C 66 % 993,9 hPa 0,0 mm 15,0 km/h (3 Bft) S 180 -1,3 C 11,9 km/h (2 Bft)
11.01.2016 19:40 4,5 C 3,9 C 66 % 993,9 hPa 0,0 mm 13,5 km/h (3 Bft) S-SO 157 -1,3 C 15,8 km/h (3 Bft)
11.01.2016 19:45 4,4 C 3,9 C 65 % 993,9 hPa 0,0 mm 12,7 km/h (3 Bft) NO 45 -1,6 C 5,2 km/h (1 Bft)
11.01.2016 19:50 4,3 C 3,8 C 65 % 993,9 hPa 0,0 mm 14,0 km/h (3 Bft) S-SW 202 -1,7 C 23,3 km/h (4 Bft)
11.01.2016 19:55 4,7 C 3,7 C 63 % 993,9 hPa 0,0 mm 15,8 km/h (3 Bft) W-SW 247 -1,7 C 45,6 km/h (6 Bft)
11.01.2016 20:00 4,6 C 3,9 C 63 % 993,9 hPa 0,0 mm 17,6 km/h (3 Bft) W 270 -1,8 C 35,5 km/h (5 Bft)
11.01.2016 20:05 4,5 C 3,9 C 63 % 993,9 hPa 0,0 mm 14,0 km/h (3 Bft) W-SW 247 -1,9 C 16,1 km/h (3 Bft)
11.01.2016 20:10 4,3 C 3,6 C 63 % 993,9 hPa 0,0 mm 12,7 km/h (3 Bft) W-NW 292 -2,1 C 12,4 km/h (3 Bft)
11.01.2016 20:15 4,5 C 3,6 C 64 % 993,9 hPa 0,0 mm 12,2 km/h (2 Bft) S 180 -1,7 C 14,5 km/h (3 Bft)
11.01.2016 20:20 4,7 C 4,0 C 63 % 993,9 hPa 0,0 mm 14,8 km/h (3 Bft) NW 315 -1,7 C 50,0 km/h (6 Bft)
11.01.2016 20:25 4,9 C 4,1 C 62 % 993,9 hPa 0,0 mm 19,4 km/h (3 Bft) W 270 -1,8 C 37,5 km/h (5 Bft)
11.01.2016 20:30 5,0 C 4,2 C 61 % 993,9 hPa 0,0 mm 22,3 km/h (4 Bft) W-SW 247 -1,9 C 30,6 km/h (5 Bft)
11.01.2016 20:35 5,0 C 3,8 C 61 % 993,9 hPa 0,0 mm 24,3 km/h (4 Bft) W 270 -1,9 C 60,6 km/h (7 Bft)
11.01.2016 20:40 5,0 C 3,8 C 60 % 994,3 hPa 0,0 mm 24,1 km/h (4 Bft) W-SW 247 -2,1 C 16,1 km/h (3 Bft)
11.01.2016 20:45 5,0 C 4,1 C 60 % 994,3 hPa 0,0 mm 23,0 km/h (4 Bft) W-NW 292 -2,1 C 32,4 km/h (5 Bft)
11.01.2016 20:50 4,9 C 4,1 C 60 % 994,3 hPa 0,0 mm 20,5 km/h (4 Bft) W-SW 247 -2,2 C 24,9 km/h (4 Bft)
11.01.2016 20:55 4,5 C 3,8 C 62 % 994,3 hPa 0,0 mm 19,2 km/h (3 Bft) NW 315 -2,1 C 39,1 km/h (6 Bft)
11.01.2016 21:00 4,3 C 3,7 C 62 % 994,8 hPa 0,0 mm 16,1 km/h (3 Bft) W-SW 247 -2,3 C 20,7 km/h (4 Bft)
11.01.2016 21:05 4,2 C 3,6 C 63 % 994,8 hPa 0,0 mm 14,2 km/h (3 Bft) W-SW 247 -2,2 C 12,2 km/h (2 Bft)
11.01.2016 21:10 4,2 C 3,6 C 63 % 994,8 hPa 0,0 mm 13,5 km/h (3 Bft) W-NW 292 -2,2 C 11,9 km/h (2 Bft)
11.01.2016 21:15 4,5 C 3,5 C 64 % 994,8 hPa 0,0 mm 13,5 km/h (3 Bft) W-SW 247 -1,7 C 15,3 km/h (3 Bft)
11.01.2016 21:20 4,4 C 3,7 C 63 % 995,2 hPa 0,0 mm 14,2 km/h (3 Bft) W-NW 292 -2,0 C 12,4 km/h (3 Bft)
11.01.2016 21:25 4,2 C 3,6 C 64 % 995,2 hPa 0,0 mm 13,7 km/h (3 Bft) W 270 -2,0 C 16,3 km/h (3 Bft)
11.01.2016 21:30 4,4 C 3,5 C 64 % 995,2 hPa 0,0 mm 14,2 km/h (3 Bft) W-NW 292 -1,8 C 23,6 km/h (4 Bft)
11.01.2016 21:35 4,1 C 3,6 C 66 % 995,2 hPa 0,0 mm 16,1 km/h (3 Bft) W 270 -1,7 C 10,4 km/h (2 Bft)
11.01.2016 21:40 4,0 C 3,4 C 67 % 995,6 hPa 0,0 mm 17,6 km/h (3 Bft) SW 225 -1,6 C 8,8 km/h (2 Bft)
11.01.2016 21:45 3,9 C 3,2 C 69 % 995,6 hPa 0,0 mm 16,1 km/h (3 Bft) W 270 -1,3 C 23,6 km/h (4 Bft)
11.01.2016 21:50 3,7 C 3,1 C 69 % 995,6 hPa 0,0 mm 12,4 km/h (3 Bft) SO 135 -1,4 C 10,4 km/h (2 Bft)
11.01.2016 21:55 3,7 C 3,1 C 70 % 995,6 hPa 0,0 mm 9,8 km/h (2 Bft) N-NO 22 -1,3 C 18,6 km/h (3 Bft)
11.01.2016 21:56 3,7 C 3,2 C 71 % 996,2 hPa 0,0 mm 8,8 km/h (2 Bft) W 270 -1,1 C 9,3 km/h (2 Bft)
11.01.2016 22:01 3,7 C 3,2 C 71 % 996,2 hPa 0,0 mm 8,8 km/h (2 Bft) W 270 -1,1 C 9,3 km/h (2 Bft)
11.01.2016 22:05 3,7 C 3,0 C 72 % 996,2 hPa 0,0 mm 10,4 km/h (2 Bft) NW 315 -0,9 C 20,7 km/h (4 Bft)
11.01.2016 22:10 3,4 C 2,6 C 74 % 996,2 hPa 0,0 mm 11,9 km/h (2 Bft) W 270 -0,8 C 16,8 km/h (3 Bft)
11.01.2016 22:15 3,0 C 2,3 C 78 % 996,2 hPa 0,0 mm 14,0 km/h (3 Bft) W 270 -0,5 C 28,5 km/h (4 Bft)
11.01.2016 22:20 2,8 C 1,9 C 79 % 996,9 hPa 0,0 mm 16,1 km/h (3 Bft) W 270 -0,5 C 27,2 km/h (4 Bft)
11.01.2016 22:25 2,7 C 1,7 C 80 % 996,9 hPa 0,0 mm 14,5 km/h (3 Bft) W 270 -0,4 C 17,6 km/h (3 Bft)
11.01.2016 22:30 2,7 C 1,7 C 82 % 996,9 hPa 0,0 mm 15,3 km/h (3 Bft) W-SW 247 -0,1 C 15,5 km/h (3 Bft)
11.01.2016 22:35 2,7 C 1,7 C 82 % 996,9 hPa 0,0 mm 16,6 km/h (3 Bft) W-SW 247 -0,1 C 16,8 km/h (3 Bft)
11.01.2016 22:40 2,6 C 1,3 C 81 % 996,8 hPa 0,0 mm 15,8 km/h (3 Bft) W 270 -0,3 C 30,8 km/h (5 Bft)
11.01.2016 22:45 2,4 C 1,4 C 81 % 996,8 hPa 0,0 mm 14,8 km/h (3 Bft) W-NW 292 -0,5 C 13,5 km/h (3 Bft)
11.01.2016 22:50 2,4 C 1,4 C 82 % 996,8 hPa 0,0 mm 15,3 km/h (3 Bft) W-SW 247 -0,4 C 21,0 km/h (4 Bft)
11.01.2016 22:55 2,5 C 1,5 C 81 % 996,8 hPa 0,0 mm 13,7 km/h (3 Bft) N-NO 22 -0,4 C 18,4 km/h (3 Bft)
11.01.2016 23:00 2,5 C 1,2 C 80 % 997,3 hPa 0,0 mm 13,5 km/h (3 Bft) NW 315 -0,6 C 10,1 km/h (2 Bft)
11.01.2016 23:05 2,4 C 1,4 C 79 % 997,3 hPa 0,0 mm 12,7 km/h (3 Bft) W 270 -0,9 C 22,5 km/h (4 Bft)
11.01.2016 23:10 2,4 C 1,3 C 79 % 997,3 hPa 0,0 mm 11,7 km/h (2 Bft) W-NW 292 -0,9 C 24,3 km/h (4 Bft)
11.01.2016 23:15 2,6 C 1,7 C 78 % 997,3 hPa 0,0 mm 10,1 km/h (2 Bft) W 270 -0,8 C 12,9 km/h (3 Bft)
11.01.2016 23:20 2,6 C 1,8 C 78 % 997,6 hPa 0,0 mm 9,3 km/h (2 Bft) W 270 -0,8 C 11,1 km/h (2 Bft)
11.01.2016 23:25 2,6 C 1,8 C 77 % 997,6 hPa 0,0 mm 8,8 km/h (2 Bft) W 270 -1,0 C 12,4 km/h (3 Bft)
11.01.2016 23:30 2,7 C 1,8 C 76 % 997,6 hPa 0,0 mm 9,6 km/h (2 Bft) W 270 -1,1 C 19,2 km/h (3 Bft)
11.01.2016 23:35 2,8 C 1,9 C 75 % 997,6 hPa 0,0 mm 10,6 km/h (2 Bft) W-SW 247 -1,2 C 12,9 km/h (3 Bft)
11.01.2016 23:40 3,0 C 2,1 C 74 % 997,1 hPa 0,0 mm 11,4 km/h (2 Bft) W-SW 247 -1,2 C 10,4 km/h (2 Bft)
11.01.2016 23:45 2,9 C 2,0 C 73 % 997,1 hPa 0,0 mm 11,7 km/h (2 Bft) W-NW 292 -1,5 C 14,0 km/h (3 Bft)
11.01.2016 23:50 2,8 C 1,9 C 73 % 997,1 hPa 0,0 mm 11,1 km/h (2 Bft) W 270 -1,5 C 15,0 km/h (3 Bft)
11.01.2016 23:55 2,8 C 2,0 C 72 % 997,1 hPa 0,0 mm 10,4 km/h (2 Bft) NW 315 -1,7 C 17,6 km/h (3 Bft)
_ Min-Zeit 07:55 23:00 20:50 17:35 - 09:00 - - 21:00 09:15
Minimum _ 1,9 C 1,2 C 60 % 993,8 hPa - 0,0 km/h (0 Bft) - - -2,3 C 0,0 km/h (0 Bft)
_ Max-Zeit 11:00 11:00 09:45 01:15 15:15 20:35 - - 10:55 20:35
Maximum _ 6,8 C 6,0 C 95 % 1001,1 hPa 0,7 mm 24,3 km/h
W (4 Bft)
- - 5,1 C 60,6 km/h
W (7 Bft)
Durchschnitt _ 3,4 C 2,9 C 86 % 996,0 hPa #9,6 mm 7,9 km/h (2 Bft) W-SW - 1,2 C 10,9 km/h (2 Bft)